Theta_e
332 334 336 338 343 346 348 349 350 350 350 351 351 352 352 350 350 348 345 344 345 345 342 346 345 349 342 346 344 342 339 337
325 334 335 337 341 345 348 348 349 348 350 350 349 349 350 350 348 348 342 340 339 340 339 338 338 338 338 337 337 338 337 337
313 327 336 339 339 343 347 348 347 348 347 350 348 347 348 347 347 347 344 340 338 337 336 334 334 335 335 335 335 335 335 335
308 311 325 338 340 341 346 346 347 348 347 347 347 347 348 348 347 347 345 341 337 335 334 333 332 334 335 335 335 334 334 334
310 310 318 338 340 341 343 345 346 347 346 346 347 347 348 346 346 347 346 342 337 335 335 333 333 335 336 336 335 335 334 334
310 310 312 330 337 338 341 345 345 346 346 345 345 346 347 346 347 346 346 345 340 335 333 334 336 336 336 336 335 335 335 335
309 310 310 318 329 337 339 341 342 343 345 345 344 344 346 345 343 342 344 345 343 338 336 334 336 337 337 337 337 337 337 335
305 310 311 313 323 331 337 340 340 341 341 340 339 340 342 343 342 341 341 342 344 338 336 335 338 336 336 338 338 337 336 334
303 305 310 316 321 326 331 335 336 337 337 338 336 335 338 338 340 341 340 340 342 341 338 335 336 336 338 339 338 337 336 336
301 308 312 316 321 324 328 334 335 336 339 340 339 337 336 337 339 340 341 341 341 341 341 340 339 337 339 339 337 334 335 335
299 307 312 313 316 319 326 332 336 337 337 334 333 334 335 334 337 338 340 342 343 342 341 342 342 343 340 338 337 334 334 334
298 301 310 312 313 315 322 328 330 333 336 335 333 331 329 334 336 339 338 340 341 344 342 340 341 341 338 339 340 338 334 333
299 299 306 312 313 312 318 322 322 324 330 334 332 327 329 330 332 332 333 335 337 339 342 341 341 341 341 339 337 336 334 334
298 300 302 310 311 311 313 315 314 315 317 319 323 325 325 325 326 328 329 332 334 336 337 337 338 337 336 335 337 335 330 330
299 296 298 306 309 310 310 310 310 311 314 317 318 319 319 320 321 322 324 327 331 333 336 336 337 338 337 335 332 331 332 331
298 299 300 305 310 311 312 309 309 311 312 313 313 314 315 316 317 318 320 323 326 330 330 333 336 337 338 339 340 337 335 334
298 300 300 306 308 310 310 308 309 311 312 312 313 314 314 314 315 317 317 319 322 327 330 331 333 335 337 338 337 337 335 335
300 301 300 301 303 304 307 308 308 310 311 311 312 312 313 313 313 315 316 318 321 322 322 325 329 331 332 333 333 334 333 334
300 302 303 303 301 303 305 306 306 307 309 310 312 312 314 314 315 316 316 317 318 319 321 322 324 326 330 330 330 331 332 334
301 304 304 305 304 303 302 304 305 305 306 309 311 313 313 313 315 316 316 317 318 320 322 323 324 325 325 325 326 329 330 331
Wind_Speed
6 10 15 18 11 12 14 15 12 11 9 7 5 4 5 4 5 5 3 3 4 4 3 3 3 7 2 3 3 2 4 2
11 11 11 13 16 15 14 14 13 10 7 8 7 6 5 6 8 10 4 3 3 4 4 4 4 3 4 3 2 3 4 4
8 8 5 8 14 15 17 14 14 13 10 10 9 8 7 9 10 10 6 5 5 3 3 3 3 3 3 4 3 3 3 3
8 6 8 10 11 15 16 16 14 15 13 13 11 9 10 9 10 10 9 6 5 4 4 3 3 4 3 4 4 3 3 3
14 14 12 14 13 14 17 17 14 16 17 13 10 10 9 9 9 10 9 7 6 6 4 4 5 4 5 3 4 3 2 2
9 11 11 13 10 15 15 14 16 14 14 11 8 9 8 9 6 3 6 7 6 6 6 6 4 4 3 2 2 2 3 3
12 10 12 10 12 13 14 15 17 19 14 9 8 7 8 7 8 5 5 4 5 5 6 5 5 5 5 4 3 2 2 3
13 14 11 8 9 10 12 12 13 13 8 5 5 6 6 7 9 9 10 7 8 6 5 4 5 4 3 2 4 3 3 3
10 8 8 8 4 7 10 12 10 10 8 10 7 10 9 6 5 10 15 12 11 10 7 5 5 7 7 4 3 3 2 3
10 7 7 10 13 10 8 11 10 10 8 6 3 8 6 6 5 5 7 7 10 9 8 5 6 5 2 6 6 3 1 3
9 7 7 4 9 11 11 11 10 8 7 6 3 4 4 2 3 4 5 5 5 8 10 7 5 5 6 6 6 5 2 1
7 7 6 7 8 4 5 6 8 7 9 8 9 5 4 5 4 3 3 4 5 9 8 4 2 4 7 7 6 3 6 2
10 10 10 9 6 8 6 6 7 7 8 9 8 6 4 3 2 5 3 3 3 8 6 10 15 10 8 7 5 9 6 5
11 12 9 7 5 7 7 9 7 7 7 7 7 8 7 5 4 4 5 4 5 9 9 8 9 10 9 7 5 9 7 7
9 10 11 10 11 11 8 8 8 8 8 7 6 6 7 7 5 4 5 3 3 6 6 7 6 8 7 7 7 6 5 6
9 9 11 14 14 15 14 11 8 8 8 8 7 7 4 4 5 4 4 4 3 4 5 4 5 4 4 3 2 5 5 5
9 7 3 1 6 10 7 7 7 7 8 7 7 6 6 6 6 5 4 4 3 4 4 5 3 3 2 4 3 4 3 6
6 7 7 4 6 4 2 3 9 10 8 7 8 8 7 6 5 6 6 4 3 4 4 4 3 3 3 2 1 2 4 4
2 4 6 7 6 1 3 4 2 4 4 5 7 8 7 7 6 5 5 5 5 6 5 5 4 4 4 5 4 4 6 7
7 4 2 3 3 2 3 4 6 6 4 4 7 4 5 6 6 7 7 7 6 6 6 6 6 6 6 5 4 5 6 7
Wind_Direction
245 202 185 189 175 181 183 186 174 176 172 170 176 173 174 188 197 197 187 175 184 184 174 191 188 206 197 209 219 218 231 240
221 216 191 177 178 185 182 184 180 177 167 175 177 174 173 190 210 212 175 182 196 197 193 187 183 186 193 206 213 235 246 247
219 238 231 176 178 184 188 182 184 180 178 174 181 183 186 202 210 214 200 189 197 178 205 188 196 181 193 204 210 227 248 260
219 192 204 196 190 190 182 187 187 181 189 187 184 184 190 193 208 212 203 198 187 192 178 209 221 192 208 205 201 218 247 247
214 213 198 195 200 178 189 187 187 190 194 189 184 189 183 210 219 215 204 199 192 181 194 210 217 211 209 218 207 208 247 268
220 221 219 196 180 184 183 185 190 195 200 195 184 184 194 173 203 232 225 227 198 190 202 212 193 190 209 209 255 240 230 214
247 227 221 200 194 190 187 188 189 194 195 182 184 179 178 190 155 166 198 230 245 241 230 204 185 198 195 191 210 227 258 257
236 225 220 231 197 183 193 189 193 190 183 155 152 161 189 197 191 183 175 186 195 202 248 259 208 198 200 158 195 183 232 257
270 231 197 203 196 177 184 180 184 170 171 174 170 185 180 201 228 206 183 182 194 194 215 210 218 243 176 165 209 197 244 223
277 238 190 198 191 199 183 191 170 179 186 186 187 175 185 178 179 202 202 173 185 184 193 199 201 225 176 183 168 152 201 207
281 271 249 208 197 189 188 179 172 168 145 118 75 75 47 261 211 203 200 191 182 176 179 188 181 199 217 209 157 142 152 272
284 281 246 238 226 182 182 164 162 156 154 149 161 173 157 203 182 189 229 164 226 212 208 234 220 277 224 235 124 150 155 206
277 264 244 215 200 208 183 166 167 167 169 171 171 174 155 141 143 142 179 198 234 274 221 193 211 221 270 207 135 218 138 163
254 255 264 237 186 180 190 176 178 168 163 169 172 157 154 158 164 178 197 183 188 203 207 203 203 201 203 189 181 234 232 226
291 249 236 222 193 191 184 188 176 173 157 156 162 160 155 164 167 175 171 177 191 206 196 203 207 206 201 212 211 222 223 238
301 283 231 220 206 188 180 178 172 174 161 165 165 163 162 173 175 173 175 193 216 186 202 207 212 196 209 207 226 211 203 227
342 338 41 87 181 181 182 157 171 185 179 156 165 164 170 185 185 174 171 185 202 215 177 180 188 193 206 165 173 236 224 223
19 2 2 63 101 54 115 209 195 190 174 171 176 177 180 180 167 192 192 183 193 177 188 169 156 156 162 147 197 239 243 262
27 28 15 11 53 130 168 237 306 299 247 189 181 193 186 174 184 190 193 181 190 189 183 174 167 176 180 167 192 218 219 239
303 334 103 335 17 43 319 263 226 226 242 230 227 220 172 182 194 191 187 198 197 196 186 179 174 179 171 184 208 208 216 231